User: anonymous   Login
Location: Newark
(60.6561°N, 46.5772°E)
Time: 09:27:42
(UTC+00:00)
Language:

LightSail 2 - Orbit

View from above orbital plane
View from above orbital plane
View from above satellite
View from above satellite

Ground track
Ground track

The orbit data is extracted from the following two-line orbital elements,

1 44420U 19036AC  19321.58828806 +.00003446 +00000-0 +75663-3 0  9991
2 44420 024.0104 010.6673 0019491 350.5718 009.4297 14.53665213019291
Epoch (UTC): 17 November 2019 14:07:08
Eccentricity: 0.0019491
inclination: 24.0104°
perigee height: 700 km
apogee height: 727 km
right ascension of ascending node: 10.6673°
argument of perigee: 350.5718°
revolutions per day: 14.53665213
mean anomaly at epoch: 9.4297°
orbit number at epoch: 1929

The dashed part of the orbit path shows where the satellite is in the earth's shadow,  

DLR